WetterOnline ( https://www.wetteronline.de )

Wetter aktuell Eisfeld

Aktuelles Wetter: Coburg (323m)

6-stündlich | Neueste Meldungen
Ortszeit Temperatur Wetter
Di, 25.01. 7:00 1.2° C bedeckt
Di, 25.01. 1:00 1.9° C bedeckt
Mo, 24.01. 19:00 2.8° C bedeckt
Mo, 24.01. 13:00 4.0° C bedeckt
Mo, 24.01. 7:00 2.1° C bedeckt
Mo, 24.01. 1:00 2.2° C bedeckt
So, 23.01. 19:00 2.7° C bedeckt
So, 23.01. 13:00 3.7° C wolkig
Ortszeit Temperatur Wetter
Di, 25.01. 8:30 0.9° C bedeckt
Di, 25.01. 8:00 1.0° C bedeckt
Di, 25.01. 7:30 1.0° C bedeckt
Di, 25.01. 7:00 1.2° C bedeckt
Di, 25.01. 6:30 1.3° C bedeckt
Di, 25.01. 6:00 1.3° C bedeckt
Di, 25.01. 5:30 1.4° C bedeckt
Ortszeit Relative Feuchte Sichtweite
Di, 25.01. 7:00 91% 19 km
Di, 25.01. 1:00 89% 24 km
Mo, 24.01. 19:00 86% 45 km
Mo, 24.01. 13:00 90% 22 km
Mo, 24.01. 7:00 96% 11 km
Mo, 24.01. 1:00 96% 13 km
So, 23.01. 19:00 90% >70 km
So, 23.01. 13:00 80% >70 km
Ortszeit Relative Feuchte Sichtweite
Di, 25.01. 8:30 92% 19 km
Di, 25.01. 8:00 90% 24 km
Di, 25.01. 7:30 90% 24 km
Di, 25.01. 7:00 91% 19 km
Di, 25.01. 6:30 89% 17 km
Di, 25.01. 6:00 90% 15 km
Di, 25.01. 5:30 90% 14 km
Ortszeit Niederschlagsmenge Niederschlagsart
Di, 25.01. 7:00 0.0 l/m2 in 12 Std. -
Di, 25.01. 1:00 0.0 l/m2 in 6 Std. -
Mo, 24.01. 19:00 0.0 l/m2 in 12 Std. -
Mo, 24.01. 13:00 0.0 l/m2 in 6 Std. -
Mo, 24.01. 7:00 0.1 l/m2 in 12 Std. Sprühregen
Mo, 24.01. 1:00 0.1 l/m2 in 6 Std. Sprühregen
So, 23.01. 19:00 0.1 l/m2 in 12 Std. -
So, 23.01. 13:00 0.1 l/m2 in 6 Std. Regen
Ortszeit Niederschlagsmenge Niederschlagsart
Di, 25.01. 8:30 0.0 l/m2 in 1 Std. -
Di, 25.01. 8:00 0.0 l/m2 in 1 Std. -
Di, 25.01. 7:30 0.0 l/m2 in 1 Std. -
Di, 25.01. 7:00 0.0 l/m2 in 1 Std. -
Di, 25.01. 6:30 0.0 l/m2 in 1 Std. -
Di, 25.01. 6:00 0.0 l/m2 in 1 Std. -
Di, 25.01. 5:30 0.0 l/m2 in 1 Std. -
Ortszeit Stärke Spitze Richtung
km/h Bft. km/h Grad Sektor
Di, 25.01. 7:00 4 1 11 200° S
Di, 25.01. 1:00 4 1 14 260° W
Mo, 24.01. 19:00 7 2 14 220° SW
Mo, 24.01. 13:00 2 1 9 80° O
Mo, 24.01. 7:00 2 1 11 220° SW
Mo, 24.01. 1:00 0 0 11 - -
So, 23.01. 19:00 4 1 18 360° N
So, 23.01. 13:00 6 1 19 340° N
Ortszeit Stärke Spitze Richtung
km/h Bft. km/h Grad Sektor
Di, 25.01. 8:30 7 2 11 240° SW
Di, 25.01. 8:00 6 1 13 260° W
Di, 25.01. 7:30 7 2 11 270° W
Di, 25.01. 7:00 4 1 11 200° S
Di, 25.01. 6:30 6 1 7 280° W
Di, 25.01. 6:00 7 2 11 270° W
Di, 25.01. 5:30 4 1 7 260° W
Ortszeit Untergrenze Bedeckung Gattung
total tief tief mittel hoch
Di, 25.01. 7:00 210 m 8/8 8/8 - - -
Di, 25.01. 1:00 240 m 8/8 8/8 - - -
Mo, 24.01. 19:00 330 m 8/8 8/8 - - -
Mo, 24.01. 13:00 450 m 8/8 8/8 - - -
Mo, 24.01. 7:00 480 m 8/8 8/8 - - -
Mo, 24.01. 1:00 180 m 8/8 8/8 - - -
So, 23.01. 19:00 480 m 8/8 8/8 - - -
So, 23.01. 13:00 810 m 6/8 6/8 - - -
Ortszeit Bedeckungsgrad in Achtel und Wolkenuntergrenze
Di, 25.01. 8:30 8(180m)
Di, 25.01. 8:00 8(180m)
Di, 25.01. 7:30 8(180m)
Di, 25.01. 7:00 8(210m)
Di, 25.01. 6:30 8(210m)
Di, 25.01. 6:00 8(210m)
Di, 25.01. 5:30 8(210m)
Ortszeit Luftdruck NN (hPa) Tendenz (hPa in 3 Std.)
Di, 25.01. 7:00 1034 - 0,4
Di, 25.01. 1:00 1035 - 0,4
Mo, 24.01. 19:00 1035 - 0,3
Mo, 24.01. 13:00 1035 - 0,6
Mo, 24.01. 7:00 1035 - 0,4
Mo, 24.01. 1:00 1036 0,0
So, 23.01. 19:00 1036 + 0,6
So, 23.01. 13:00 1036 + 0,1
Ortszeit Luftdruck NN (hPa) Tendenz (hPa in 3 Std.)
Di, 25.01. 8:30 1034 0,0
Di, 25.01. 8:00 1034 - 0,1
Di, 25.01. 7:30 1034 - 0,3
Di, 25.01. 7:00 1034 - 0,4
Di, 25.01. 6:30 1034 - 0,6
Di, 25.01. 6:00 1034 - 0,9
Di, 25.01. 5:30 1034 - 1,0
Ortszeit Schneehöhe (cm)
Di, 25.01. 7:00 0
Di, 25.01. 1:00 0
Mo, 24.01. 19:00 0
Mo, 24.01. 13:00 0
Mo, 24.01. 7:00 0
Mo, 24.01. 1:00 0
So, 23.01. 19:00 0
So, 23.01. 13:00 0
Ortszeit Schneehöhe (cm)
Di, 25.01. 8:30 0
Di, 25.01. 8:00 0
Di, 25.01. 7:30 0
Di, 25.01. 7:00 0
Di, 25.01. 6:30 0
Di, 25.01. 6:00 0
Di, 25.01. 5:30 0
Link zu dieser Seite / Seite empfehlen

Das Wetter in ...